When you browse on this site, cookies collect data to enhance your experience and personalize the content and advertising you see.
Visit our Privacy Policy to learn more. By continuing to use the site, you agree to this use of cookies and data.
  • In Hungary
  • List of Countries
  • For 7 days
  • Water Temperature
  • Weather Map
  • News
  • Weather Widgets
  • user-avatar
    Login

    Hourly Weather Zenica

    Today, 4 June, Thursday

    Time Temperature Precipitation Wind Pressure Humidity
    00:00 +8°C° 0 mm 2 mps 671 mmHg 93%
    01:00 +9°C° 0 mm 1 mps 671 mmHg 93%
    02:00 +7°C° 0 mm 2 mps 671 mmHg 93%
    03:00 +7°C° 0 mm 2 mps 670 mmHg 92%
    04:00 +7°C° 0 mm 2 mps 670 mmHg 92%
    05:00 +9°C° 0 mm 2 mps 670 mmHg 87%
    06:00 +11°C° 0 mm 3 mps 671 mmHg 82%
    07:00 +12°C° 0 mm 3 mps 671 mmHg 76%
    08:00 +14°C° 0 mm 4 mps 672 mmHg 68%
    09:00 +17°C° 0 mm 4 mps 672 mmHg 61%
    10:00 +19°C° 0 mm 5 mps 673 mmHg 53%
    11:00 +19°C° 0 mm 5 mps 673 mmHg 53%
    12:00 +19°C° 0 mm 6 mps 672 mmHg 53%
    13:00 +19°C° 0 mm 6 mps 672 mmHg 54%
    14:00 +19°C° 0 mm 6 mps 672 mmHg 55%
    15:00 +17°C° 0 mm 6 mps 672 mmHg 56%
    16:00 +17°C° 0 mm 7 mps 671 mmHg 58%
    17:00 +15°C° 0 mm 6 mps 671 mmHg 62%
    18:00 +14°C° 0 mm 5 mps 670 mmHg 67%
    19:00 +13°C° 0 mm 4 mps 670 mmHg 72%
    20:00 +12°C° 0 mm 4 mps 669 mmHg 76%
    21:00 +12°C° 0 mm 5 mps 669 mmHg 80%
    22:00 +10°C° 0 mm 5 mps 669 mmHg 84%
    23:00 +10°C° 0 mm 5 mps 669 mmHg 85%

    Tomorrow, 5 June, Friday

    Time Temperature Precipitation Wind Pressure Humidity
    00:00 +10°C° 0 mm 5 mps 669 mmHg 87%
    01:00 +10°C° 0 mm 5 mps 669 mmHg 88%
    02:00 +12°C° 0.2 mm 5 mps 669 mmHg 90%
    03:00 +12°C° 0.2 mm 5 mps 668 mmHg 92%
    04:00 +12°C° 0.2 mm 5 mps 668 mmHg 93%
    05:00 +12°C° 0.6 mm 5 mps 668 mmHg 93%
    06:00 +12°C° 0.6 mm 5 mps 668 mmHg 94%
    07:00 +13°C° 0.6 mm 5 mps 668 mmHg 94%
    08:00 +13°C° 2.1 mm 5 mps 668 mmHg 94%
    09:00 +13°C° 2.1 mm 5 mps 668 mmHg 94%
    10:00 +13°C° 2.1 mm 4 mps 668 mmHg 95%
    11:00 +13°C° 1.2 mm 4 mps 668 mmHg 93%
    12:00 +14°C° 1.2 mm 5 mps 668 mmHg 91%
    13:00 +15°C° 1.2 mm 5 mps 668 mmHg 89%
    14:00 +14°C° 1.3 mm 4 mps 669 mmHg 91%
    15:00 +14°C° 1.3 mm 4 mps 669 mmHg 93%
    16:00 +13°C° 1.3 mm 4 mps 669 mmHg 96%
    17:00 +13°C° 0.7 mm 3 mps 669 mmHg 96%
    18:00 +12°C° 0.7 mm 3 mps 669 mmHg 96%
    19:00 +12°C° 0.7 mm 2 mps 670 mmHg 96%
    20:00 +12°C° 0.4 mm 2 mps 670 mmHg 97%
    21:00 +12°C° 0.4 mm 2 mps 670 mmHg 97%
    22:00 +10°C° 0.4 mm 2 mps 670 mmHg 97%
    23:00 +10°C° 0.1 mm 2 mps 670 mmHg 97%

    Day after tomorrow, 6 June, Saturday

    Time Temperature Precipitation Wind Pressure Humidity
    00:00 +9°C° 0.1 mm 2 mps 670 mmHg 96%
    01:00 +10°C° 0.1 mm 1 mps 671 mmHg 96%
    02:00 +10°C° 0 mm 1 mps 670 mmHg 96%
    03:00 +9°C° 0 mm 1 mps 670 mmHg 95%
    04:00 +8°C° 0 mm 0 mps 670 mmHg 95%
    05:00 +10°C° 0 mm 0 mps 671 mmHg 92%
    06:00 +12°C° 0 mm 1 mps 672 mmHg 89%
    07:00 +14°C° 0 mm 1 mps 672 mmHg 87%
    08:00 +16°C° 0 mm 1 mps 673 mmHg 77%
    09:00 +19°C° 0 mm 1 mps 673 mmHg 68%
    10:00 +21°C° 0 mm 1 mps 674 mmHg 58%
    11:00 +22°C° 0 mm 1 mps 673 mmHg 56%
    12:00 +23°C° 0 mm 1 mps 673 mmHg 53%
    13:00 +24°C° 0 mm 1 mps 673 mmHg 50%
    14:00 +23°C° 0.1 mm 1 mps 673 mmHg 53%
    15:00 +23°C° 0.1 mm 1 mps 673 mmHg 56%
    16:00 +23°C° 0.1 mm 1 mps 673 mmHg 59%
    17:00 +21°C° 0.2 mm 1 mps 672 mmHg 67%
    18:00 +19°C° 0.2 mm 1 mps 672 mmHg 76%
    19:00 +16°C° 0.2 mm 1 mps 671 mmHg 84%
    20:00 +15°C° 0.1 mm 1 mps 672 mmHg 86%
    21:00 +14°C° 0.1 mm 1 mps 672 mmHg 89%
    22:00 +13°C° 0.1 mm 1 mps 672 mmHg 91%
    23:00 +13°C° 0 mm 1 mps 672 mmHg 92%

    7 June, Sunday

    Time Temperature Precipitation Wind Pressure Humidity
    00:00 +12°C° 0 mm 1 mps 672 mmHg 93%
    01:00 +12°C° 0 mm 1 mps 672 mmHg 94%
    02:00 +12°C° 0 mm 1 mps 672 mmHg 94%
    03:00 +11°C° 0 mm 1 mps 672 mmHg 94%
    04:00 +11°C° 0 mm 1 mps 672 mmHg 94%
    05:00 +13°C° 0 mm 1 mps 672 mmHg 90%
    06:00 +14°C° 0 mm 1 mps 673 mmHg 85%
    07:00 +16°C° 0 mm 1 mps 673 mmHg 81%
    08:00 +17°C° 0 mm 2 mps 674 mmHg 72%
    09:00 +19°C° 0 mm 2 mps 675 mmHg 64%
    10:00 +21°C° 0 mm 2 mps 675 mmHg 55%
    11:00 +21°C° 0.1 mm 2 mps 675 mmHg 55%
    12:00 +21°C° 0.1 mm 3 mps 675 mmHg 55%
    13:00 +22°C° 0.1 mm 3 mps 675 mmHg 55%
    14:00 +21°C° 0.2 mm 3 mps 675 mmHg 59%
    15:00 +21°C° 0.2 mm 3 mps 675 mmHg 63%
    16:00 +20°C° 0.2 mm 3 mps 675 mmHg 67%
    17:00 +19°C° 0.2 mm 2 mps 675 mmHg 74%
    18:00 +17°C° 0.2 mm 2 mps 674 mmHg 82%
    19:00 +15°C° 0.2 mm 1 mps 674 mmHg 89%
    20:00 +14°C° 0 mm 1 mps 674 mmHg 91%
    21:00 +13°C° 0 mm 2 mps 674 mmHg 92%
    22:00 +12°C° 0 mm 2 mps 674 mmHg 94%
    23:00 +12°C° 0 mm 2 mps 674 mmHg 93%

    8 June, Monday

    Time Temperature Precipitation Wind Pressure Humidity
    00:00 +12°C° 0 mm 2 mps 674 mmHg 92%
    01:00 +10°C° 0 mm 2 mps 673 mmHg 92%
    02:00 +10°C° 0 mm 2 mps 673 mmHg 91%
    03:00 +10°C° 0 mm 2 mps 673 mmHg 91%
    04:00 +10°C° 0 mm 2 mps 673 mmHg 91%
    05:00 +12°C° 0 mm 1 mps 673 mmHg 88%
    06:00 +14°C° 0 mm 1 mps 674 mmHg 86%
    07:00 +16°C° 0 mm 1 mps 674 mmHg 84%
    08:00 +16°C° 0.6 mm 1 mps 674 mmHg 84%
    09:00 +18°C° 0.6 mm 1 mps 675 mmHg 84%
    10:00 +18°C° 0.6 mm 1 mps 675 mmHg 84%
    11:00 +19°C° 0.8 mm 1 mps 675 mmHg 82%
    12:00 +18°C° 0.8 mm 2 mps 675 mmHg 81%
    13:00 +19°C° 0.8 mm 2 mps 674 mmHg 79%
    14:00 +18°C° 0.8 mm 2 mps 674 mmHg 80%
    15:00 +18°C° 0.8 mm 3 mps 674 mmHg 81%
    16:00 +18°C° 0.8 mm 3 mps 674 mmHg 83%
    17:00 +17°C° 0.4 mm 2 mps 674 mmHg 85%
    18:00 +16°C° 0.4 mm 2 mps 674 mmHg 88%
    19:00 +15°C° 0.4 mm 1 mps 673 mmHg 91%
    20:00 +14°C° 0.1 mm 1 mps 673 mmHg 92%
    21:00 +13°C° 0.1 mm 1 mps 673 mmHg 93%
    22:00 +13°C° 0.1 mm 2 mps 673 mmHg 94%
    23:00 +12°C° 0.4 mm 1 mps 673 mmHg 94%

    9 June, Tuesday

    Time Temperature Precipitation Wind Pressure Humidity
    00:00 +12°C° 0.4 mm 1 mps 673 mmHg 95%
    01:00 +12°C° 0.4 mm 1 mps 673 mmHg 96%
    02:00 +12°C° 0.5 mm 1 mps 673 mmHg 96%
    03:00 +12°C° 0.5 mm 1 mps 673 mmHg 96%
    04:00 +12°C° 0.5 mm 1 mps 673 mmHg 96%
    05:00 +13°C° 0.1 mm 1 mps 673 mmHg 94%
    06:00 +14°C° 0.1 mm 1 mps 674 mmHg 92%
    07:00 +15°C° 0.1 mm 0 mps 674 mmHg 90%
    08:00 +16°C° 1.2 mm 1 mps 675 mmHg 88%
    09:00 +18°C° 1.2 mm 1 mps 675 mmHg 86%
    10:00 +19°C° 1.2 mm 1 mps 675 mmHg 84%
    11:00 +19°C° 1.6 mm 1 mps 675 mmHg 84%
    12:00 +19°C° 1.6 mm 1 mps 675 mmHg 85%
    13:00 +19°C° 1.6 mm 1 mps 675 mmHg 85%
    14:00 +19°C° 1.5 mm 1 mps 675 mmHg 86%
    15:00 +19°C° 1.5 mm 1 mps 675 mmHg 86%
    16:00 +18°C° 1.5 mm 1 mps 675 mmHg 87%
    17:00 +18°C° 0.5 mm 1 mps 675 mmHg 89%
    18:00 +16°C° 0.5 mm 1 mps 675 mmHg 90%
    19:00 +15°C° 0.5 mm 1 mps 675 mmHg 92%
    20:00 +14°C° 0 mm 1 mps 675 mmHg 93%
    21:00 +13°C° 0 mm 1 mps 676 mmHg 94%
    22:00 +12°C° 0 mm 1 mps 676 mmHg 95%
    23:00 +10°C° 0 mm 0 mps 676 mmHg 95%
    Show more